Time,TemperatureF,DewpointF,PressureIn,WindDirection,WindDirectionDegrees,WindSpeedMPH,WindSpeedGustMPH,Humidity,HourlyPrecipIn,Conditions,Clouds,dailyrainin,SoftwareType,DateUTC
2013-10-08 00:00:00,49.3,47.0,30.18,SE,146,0.0,0.0,93,0.00,,,0.00,weatherlink.com 1.10,2013-10-08 05:00:00,
2013-10-08 00:15:00,49.0,47.0,30.18,ESE,111,0.0,0.0,92,0.00,,,0.00,weatherlink.com 1.10,2013-10-08 05:15:00,
2013-10-08 00:30:00,49.2,47.0,30.18,ESE,111,0.0,0.0,92,0.00,,,0.00,weatherlink.com 1.10,2013-10-08 05:30:00,
2013-10-08 00:45:00,48.8,46.0,30.18,ESE,112,0.0,0.0,91,0.00,,,0.00,weatherlink.com 1.10,2013-10-08 05:45:00,
2013-10-08 01:00:00,48.6,46.0,30.18,ESE,107,0.0,0.0,92,0.00,,,0.00,weatherlink.com 1.10,2013-10-08 06:00:00,
2013-10-08 01:15:00,48.9,46.0,30.18,ESE,110,0.0,0.0,90,0.00,,,0.00,weatherlink.com 1.10,2013-10-08 06:15:00,
2013-10-08 01:30:00,48.9,46.0,30.18,ESE,110,0.0,0.0,91,0.00,,,0.00,weatherlink.com 1.10,2013-10-08 06:30:00,
2013-10-08 01:45:00,49.1,47.0,30.19,ESE,110,0.0,0.0,91,0.00,,,0.00,weatherlink.com 1.10,2013-10-08 06:45:00,
2013-10-08 02:00:00,49.4,47.0,30.19,ESE,110,0.0,0.0,90,0.00,,,0.00,weatherlink.com 1.10,2013-10-08 07:00:00,
2013-10-08 02:16:00,49.5,46.0,30.19,ESE,110,0.0,0.0,89,0.00,,,0.00,weatherlink.com 1.10,2013-10-08 07:16:00,
2013-10-08 02:30:00,49.7,47.0,30.19,ESE,110,0.0,0.0,89,0.00,,,0.00,weatherlink.com 1.10,2013-10-08 07:30:00,
2013-10-08 02:45:00,50.2,47.0,30.19,ESE,110,0.0,0.0,87,0.00,,,0.00,weatherlink.com 1.10,2013-10-08 07:45:00,
2013-10-08 03:00:00,50.3,46.0,30.18,ESE,110,0.0,0.0,86,0.00,,,0.00,weatherlink.com 1.10,2013-10-08 08:00:00,
2013-10-08 03:15:00,50.4,46.0,30.18,ESE,110,0.0,0.0,86,0.00,,,0.00,weatherlink.com 1.10,2013-10-08 08:15:00,
2013-10-08 03:30:00,50.5,46.0,30.18,ESE,110,0.0,0.0,85,0.00,,,0.00,weatherlink.com 1.10,2013-10-08 08:30:00,
2013-10-08 03:45:00,50.3,46.0,30.19,ESE,110,0.0,0.0,85,0.00,,,0.00,weatherlink.com 1.10,2013-10-08 08:45:00,
2013-10-08 04:00:00,50.1,46.0,30.19,ESE,110,0.0,0.0,86,0.00,,,0.00,weatherlink.com 1.10,2013-10-08 09:00:00,
2013-10-08 04:15:00,49.0,46.0,30.19,ESE,110,0.0,0.0,88,0.00,,,0.00,weatherlink.com 1.10,2013-10-08 09:15:00,
2013-10-08 04:30:00,48.8,45.0,30.19,ESE,110,0.0,0.0,88,0.00,,,0.00,weatherlink.com 1.10,2013-10-08 09:30:00,
2013-10-08 04:45:00,48.7,46.0,30.19,ESE,110,0.0,0.0,89,0.00,,,0.00,weatherlink.com 1.10,2013-10-08 09:45:00,
2013-10-08 05:00:00,48.9,47.0,30.19,ESE,110,0.0,0.0,92,0.00,,,0.00,weatherlink.com 1.10,2013-10-08 10:00:00,
2013-10-08 05:15:00,48.7,45.0,30.19,ESE,110,0.0,0.0,88,0.00,,,0.00,weatherlink.com 1.10,2013-10-08 10:15:00,
2013-10-08 05:30:00,48.3,45.0,30.19,ESE,110,0.0,0.0,89,0.00,,,0.00,weatherlink.com 1.10,2013-10-08 10:30:00,
2013-10-08 05:45:00,47.9,45.0,30.19,ESE,110,0.0,0.0,90,0.00,,,0.00,weatherlink.com 1.10,2013-10-08 10:45:00,
2013-10-08 06:00:00,47.6,45.0,30.20,ESE,110,0.0,0.0,91,0.00,,,0.00,weatherlink.com 1.10,2013-10-08 11:00:00,
2013-10-08 06:15:00,47.0,45.0,30.20,ESE,110,0.0,0.0,91,0.00,,,0.00,weatherlink.com 1.10,2013-10-08 11:15:00,
2013-10-08 06:30:00,47.4,45.0,30.20,ESE,110,0.0,0.0,91,0.00,,,0.00,weatherlink.com 1.10,2013-10-08 11:30:00,
2013-10-08 06:45:00,47.8,45.0,30.20,ESE,110,0.0,0.0,90,0.00,,,0.00,weatherlink.com 1.10,2013-10-08 11:45:00,
2013-10-08 07:00:00,48.2,45.0,30.20,ESE,110,0.0,0.0,89,0.00,,,0.00,weatherlink.com 1.10,2013-10-08 12:00:00,
2013-10-08 07:15:00,48.3,45.0,30.20,ESE,110,0.0,0.0,88,0.00,,,0.00,weatherlink.com 1.10,2013-10-08 12:15:00,
2013-10-08 07:30:00,49.1,45.0,30.20,ESE,110,0.0,0.0,87,0.00,,,0.00,weatherlink.com 1.10,2013-10-08 12:30:00,
2013-10-08 07:45:00,50.1,46.0,30.20,ESE,110,0.0,0.0,85,0.00,,,0.00,weatherlink.com 1.10,2013-10-08 12:45:00,
2013-10-08 08:01:00,50.8,46.0,30.20,ESE,110,0.0,0.0,84,0.00,,,0.00,weatherlink.com 1.10,2013-10-08 13:01:00,
2013-10-08 08:16:00,52.6,48.0,30.21,ESE,113,0.0,0.0,83,0.00,,,0.00,weatherlink.com 1.10,2013-10-08 13:16:00,
2013-10-08 08:31:00,54.7,49.0,30.21,ESE,114,0.0,0.0,81,0.00,,,0.00,weatherlink.com 1.10,2013-10-08 13:31:00,
2013-10-08 08:46:00,56.9,50.0,30.21,SE,145,0.0,0.0,79,0.00,,,0.00,weatherlink.com 1.10,2013-10-08 13:46:00,
2013-10-08 09:01:00,58.7,51.0,30.20,SE,144,0.0,0.0,75,0.00,,,0.00,weatherlink.com 1.10,2013-10-08 14:01:00,
2013-10-08 09:16:00,59.7,51.0,30.20,SE,142,4.0,8.0,74,0.00,,,0.00,weatherlink.com 1.10,2013-10-08 14:16:00,
2013-10-08 09:31:00,60.5,52.0,30.20,SE,144,2.0,8.0,74,0.00,,,0.00,weatherlink.com 1.10,2013-10-08 14:31:00,
2013-10-08 09:46:00,60.7,51.0,30.21,SE,138,6.0,10.0,71,0.00,,,0.00,weatherlink.com 1.10,2013-10-08 14:46:00,
2013-10-08 10:01:00,61.6,52.0,30.21,SE,143,4.0,9.0,71,0.00,,,0.00,weatherlink.com 1.10,2013-10-08 15:01:00,
2013-10-08 10:16:00,62.3,52.0,30.21,SE,144,2.0,9.0,70,0.00,,,0.00,weatherlink.com 1.10,2013-10-08 15:16:00,
2013-10-08 10:31:00,63.4,53.0,30.20,SSE,153,5.0,8.0,70,0.00,,,0.00,weatherlink.com 1.10,2013-10-08 15:31:00,
2013-10-08 10:46:00,63.4,51.0,30.20,SSE,150,3.0,9.0,65,0.00,,,0.00,weatherlink.com 1.10,2013-10-08 15:46:00,
2013-10-08 11:01:00,64.5,52.0,30.20,SE,132,6.0,10.0,64,0.00,,,0.00,weatherlink.com 1.10,2013-10-08 16:01:00,
2013-10-08 11:16:00,65.2,52.0,30.20,SE,128,6.0,11.0,63,0.00,,,0.00,weatherlink.com 1.10,2013-10-08 16:16:00,
2013-10-08 11:31:00,65.1,50.0,30.20,SE,134,9.0,13.0,58,0.00,,,0.00,weatherlink.com 1.10,2013-10-08 16:31:00,
2013-10-08 11:46:00,65.9,51.0,30.20,SSE,154,7.0,10.0,59,0.00,,,0.00,weatherlink.com 1.10,2013-10-08 16:46:00,
2013-10-08 12:01:00,66.8,52.0,30.20,South,173,2.0,11.0,60,0.00,,,0.00,weatherlink.com 1.10,2013-10-08 17:01:00,
2013-10-08 12:16:00,66.8,50.0,30.19,SSE,159,10.0,12.0,55,0.00,,,0.00,weatherlink.com 1.10,2013-10-08 17:16:00,
2013-10-08 12:31:00,67.5,51.0,30.19,South,169,5.0,12.0,56,0.00,,,0.00,weatherlink.com 1.10,2013-10-08 17:31:00,
2013-10-08 12:46:00,68.3,51.0,30.19,SSE,161,3.0,9.0,55,0.00,,,0.00,weatherlink.com 1.10,2013-10-08 17:46:00,
2013-10-08 13:02:00,67.9,50.0,30.18,SE,145,6.0,14.0,54,0.00,,,0.00,weatherlink.com 1.10,2013-10-08 18:02:00,
2013-10-08 13:17:00,68.4,50.0,30.17,SE,125,7.0,11.0,52,0.00,,,0.00,weatherlink.com 1.10,2013-10-08 18:17:00,
2013-10-08 13:32:00,68.5,50.0,30.17,SE,144,7.0,11.0,52,0.00,,,0.00,weatherlink.com 1.10,2013-10-08 18:32:00,
2013-10-08 13:47:00,68.7,50.0,30.16,SSE,155,7.0,12.0,52,0.00,,,0.00,weatherlink.com 1.10,2013-10-08 18:47:00,
2013-10-08 14:02:00,69.5,52.0,30.14,SE,145,5.0,15.0,54,0.00,,,0.00,weatherlink.com 1.10,2013-10-08 19:02:00,
2013-10-08 14:17:00,69.7,52.0,30.14,South,171,6.0,9.0,54,0.00,,,0.00,weatherlink.com 1.10,2013-10-08 19:17:00,
2013-10-08 14:32:00,69.5,52.0,30.14,ESE,111,7.0,9.0,54,0.00,,,0.00,weatherlink.com 1.10,2013-10-08 19:32:00,
2013-10-08 14:47:00,70.3,53.0,30.14,SSE,148,4.0,10.0,55,0.00,,,0.00,weatherlink.com 1.10,2013-10-08 19:47:00,
2013-10-08 15:02:00,69.6,53.0,30.14,ESE,117,7.0,11.0,55,0.00,,,0.00,weatherlink.com 1.10,2013-10-08 20:02:00,
2013-10-08 15:17:00,70.2,54.0,30.13,SSE,165,3.0,9.0,57,0.00,,,0.00,weatherlink.com 1.10,2013-10-08 20:17:00,
2013-10-08 15:32:00,70.4,54.0,30.13,SSE,151,1.0,11.0,56,0.00,,,0.00,weatherlink.com 1.10,2013-10-08 20:32:00,
2013-10-08 15:47:00,70.9,53.0,30.13,ESE,119,3.0,11.0,53,0.00,,,0.00,weatherlink.com 1.10,2013-10-08 20:47:00,
2013-10-08 16:02:00,70.6,54.0,30.12,SE,138,4.0,9.0,55,0.00,,,0.00,weatherlink.com 1.10,2013-10-08 21:02:00,
2013-10-08 16:17:00,71.0,54.0,30.12,SE,124,3.0,8.0,56,0.00,,,0.00,weatherlink.com 1.10,2013-10-08 21:17:00,
2013-10-08 16:32:00,70.7,53.0,30.12,SSE,149,5.0,8.0,53,0.00,,,0.00,weatherlink.com 1.10,2013-10-08 21:32:00,
2013-10-08 16:47:00,70.4,53.0,30.12,SSE,157,8.0,8.0,55,0.00,,,0.00,weatherlink.com 1.10,2013-10-08 21:47:00,
2013-10-08 17:02:00,70.1,53.0,30.12,SE,126,5.0,8.0,54,0.00,,,0.00,weatherlink.com 1.10,2013-10-08 22:02:00,
2013-10-08 17:17:00,69.4,53.0,30.12,SE,142,3.0,7.0,56,0.00,,,0.00,weatherlink.com 1.10,2013-10-08 22:17:00,
2013-10-08 17:32:00,68.9,53.0,30.12,SE,137,4.0,7.0,57,0.00,,,0.00,weatherlink.com 1.10,2013-10-08 22:32:00,
2013-10-08 17:47:00,67.9,51.0,30.12,ESE,123,3.0,8.0,56,0.00,,,0.00,weatherlink.com 1.10,2013-10-08 22:47:00,
2013-10-08 18:02:00,67.0,52.0,30.12,ESE,123,3.0,8.0,58,0.00,,,0.00,weatherlink.com 1.10,2013-10-08 23:02:00,
2013-10-08 18:17:00,66.4,52.0,30.12,ESE,123,2.0,3.0,60,0.00,,,0.00,weatherlink.com 1.10,2013-10-08 23:17:00,
2013-10-08 18:32:00,65.1,52.0,30.12,ESE,122,1.0,3.0,63,0.00,,,0.00,weatherlink.com 1.10,2013-10-08 23:32:00,
2013-10-08 18:47:00,63.7,52.0,30.11,ESE,121,2.0,3.0,66,0.00,,,0.00,weatherlink.com 1.10,2013-10-08 23:47:00,
2013-10-08 19:02:00,62.2,51.0,30.11,ESE,121,1.0,3.0,68,0.00,,,0.00,weatherlink.com 1.10,2013-10-09 00:02:00,
2013-10-08 19:17:00,61.1,51.0,30.12,ESE,121,2.0,3.0,70,0.00,,,0.00,weatherlink.com 1.10,2013-10-09 00:17:00,
2013-10-08 19:32:00,60.1,51.0,30.12,ESE,121,2.0,3.0,72,0.00,,,0.00,weatherlink.com 1.10,2013-10-09 00:32:00,
2013-10-08 19:47:00,59.1,50.0,30.12,ESE,121,2.0,3.0,73,0.00,,,0.00,weatherlink.com 1.10,2013-10-09 00:47:00,
2013-10-08 20:02:00,58.5,50.0,30.13,ESE,121,2.0,3.0,74,0.00,,,0.00,weatherlink.com 1.10,2013-10-09 01:02:00,
2013-10-08 20:17:00,58.0,50.0,30.13,ESE,121,1.0,3.0,75,0.00,,,0.00,weatherlink.com 1.10,2013-10-09 01:17:00,
2013-10-08 20:32:00,57.4,50.0,30.13,ESE,121,0.0,3.0,76,0.00,,,0.00,weatherlink.com 1.10,2013-10-09 01:32:00,
2013-10-08 20:47:00,56.9,49.0,30.13,ESE,121,2.0,3.0,76,0.00,,,0.00,weatherlink.com 1.10,2013-10-09 01:47:00,
2013-10-08 21:02:00,56.6,49.0,30.12,ESE,123,3.0,4.0,77,0.00,,,0.00,weatherlink.com 1.10,2013-10-09 02:02:00,
2013-10-08 21:17:00,56.7,49.0,30.12,SE,126,5.0,5.0,76,0.00,,,0.00,weatherlink.com 1.10,2013-10-09 02:17:00,
2013-10-08 21:32:00,56.9,49.0,30.13,ESE,123,3.0,6.0,76,0.00,,,0.00,weatherlink.com 1.10,2013-10-09 02:32:00,
2013-10-08 21:47:00,56.9,49.0,30.13,SE,124,5.0,5.0,76,0.00,,,0.00,weatherlink.com 1.10,2013-10-09 02:47:00,
2013-10-08 22:02:00,56.6,50.0,30.13,SE,131,3.0,7.0,78,0.00,,,0.00,weatherlink.com 1.10,2013-10-09 03:02:00,
2013-10-08 22:17:00,56.1,49.0,30.13,SE,126,4.0,7.0,78,0.00,,,0.00,weatherlink.com 1.10,2013-10-09 03:17:00,
2013-10-08 22:32:00,55.5,49.0,30.13,ESE,119,3.0,6.0,79,0.00,,,0.00,weatherlink.com 1.10,2013-10-09 03:32:00,
2013-10-08 22:47:00,55.8,49.0,30.13,SE,131,4.0,9.0,79,0.00,,,0.00,weatherlink.com 1.10,2013-10-09 03:47:00,
2013-10-08 23:02:00,55.9,49.0,30.12,SSE,148,10.0,10.0,77,0.00,,,0.00,weatherlink.com 1.10,2013-10-09 04:02:00,
2013-10-08 23:17:00,55.7,49.0,30.12,ESE,119,4.0,10.0,77,0.00,,,0.00,weatherlink.com 1.10,2013-10-09 04:17:00,
2013-10-08 23:32:00,55.1,49.0,30.12,SE,128,4.0,9.0,79,0.00,,,0.00,weatherlink.com 1.10,2013-10-09 04:32:00,
2013-10-08 23:47:00,54.5,48.0,30.12,SE,142,2.0,7.0,80,0.00,,,0.00,weatherlink.com 1.10,2013-10-09 04:47:00,